This is the latest recevied weather packets stored in our database for station/object HS3UAA-1. If no packets are shown the sender has not sent any weather packets the latest 10 day(s).
| Time | Temp. | Humidity | Pressure | Rain* | Wind** | Luminosity | Snow |
|---|---|---|---|---|---|---|---|
| 1787447049 | 28.33° C | 52% | 998 hPa | - | - | 0 W/m² | - |
| 1787446727 | 28.89° C | 51% | 998 hPa | - | - | 0 W/m² | - |
| 1787446405 | 28.89° C | 52% | 998 hPa | - | - | 0 W/m² | - |
| 1787446083 | 28.89° C | 54% | 998 hPa | - | - | 0 W/m² | - |
| 1787445761 | 29.44° C | 53% | 997 hPa | - | - | 0 W/m² | - |
| 1787445439 | 29.44° C | 52% | 997 hPa | - | - | 0 W/m² | - |
| 1787445117 | 29.44° C | 51% | 997 hPa | - | - | 0 W/m² | - |
| 1787444794 | 29.44° C | 49% | 997 hPa | - | - | 0 W/m² | - |
| 1787444472 | 29.44° C | 49% | 997 hPa | - | - | 0 W/m² | - |
| 1787444150 | 30° C | 51% | 997 hPa | - | - | 0 W/m² | - |
| 1787443828 | 30.56° C | 47% | 997 hPa | - | - | 0 W/m² | - |
| 1787443506 | 32.22° C | 49% | 997 hPa | - | - | 0 W/m² | - |
| 1787443184 | 33.33° C | 48% | 997 hPa | - | - | 0 W/m² | - |
| 1787442862 | 33.33° C | 48% | 997 hPa | - | - | 0 W/m² | - |
| 1787442540 | 33.89° C | 46% | 997 hPa | - | - | 0 W/m² | - |
| 1787442218 | 33.33° C | 47% | 997 hPa | - | - | 0 W/m² | - |
| 1787441896 | 33.33° C | 47% | 997 hPa | - | - | 0 W/m² | - |
| 1787441574 | 33.33° C | 47% | 997 hPa | - | - | 0 W/m² | - |
| 1787441252 | 33.33° C | 48% | 997 hPa | - | - | 0 W/m² | - |
| 1787440930 | 32.78° C | 48% | 997 hPa | - | - | 0 W/m² | - |
| 1787440608 | 32.78° C | 49% | 997 hPa | - | - | 0 W/m² | - |
| 1787440286 | 32.78° C | 48% | 997 hPa | - | - | 0 W/m² | - |
| 1787439964 | 32.78° C | 49% | 997 hPa | - | - | 0 W/m² | - |
| 1787439642 | 33.33° C | 48% | 996 hPa | - | - | 0 W/m² | - |
| 1787439320 | 31.67° C | 51% | 996 hPa | - | - | 0 W/m² | - |
* Rain since midnight (hover to see other rain measurements)
** Current wind speed in m/s (hover to see current wind gust speed)